This demonstration page uses our WeatherBlox Daily Observations layout. Learn more.

Left ArrowRight Arrow

Hourly Observations for June 3, 2017

Temp ( °F °C ) Dew Point ( °F °C ) Humidity (%) Winds ( mph kmh ) Pressure ( in mb ) Visibility ( mi km ) Precip ( " mm )
12:56 am 00:56 Clear 64 17.8 61 15.9 89 89 ENE 3 6 29.98 1015 10 16 0.00 0.00
1:56 am 01:56 Clear 63 17.4 61 15.9 91 91 SE 3 6 29.97 1015 10 16 0.00 0.00
2:56 am 02:56 Clear 60 15.4 59 14.8 96 96 E 3 6 29.97 1015 10 16 0.00 0.00
3:56 am 03:56 Clear 58 14.7 58 14.2 97 97 ESE 3 6 29.98 1015 10 16 0.00 0.00
4:56 am 04:56 Clear 57 14 57 13.7 98 98 ESE 3 6 29.99 1016 10 16 0.00 0.00
5:56 am 05:56 Sunny 58 14.3 57 14 98 98 ESE 5 7 29.99 1016 10 16 0.00 0.00
6:56 am 06:56 Sunny 61 16.2 61 15.9 98 98 Calm 30.00 1016 10 16 0.00 0.00
7:56 am 07:56 Sunny 69 20.3 63 17.1 82 82 Calm 30.00 1016 10 16 0.00 0.00
8:56 am 08:56 Sunny 73 22.8 64 17.7 73 73 S 5 7 30.01 1016 10 16 0.00 0.03
9:56 am 09:56 Sunny 78 25.3 65 18.2 65 65 SSW 6 9 30.01 1016 10 16 0.00 0.03
10:56 am 10:56 Sunny 81 27.1 65 18.1 58 58 S 3 6 30.00 1016 10 16 0.00 0.00
11:56 am 11:56 Sunny 83 28.3 64 17.5 52 52 SSW 12 19 29.99 1016 10 16 0.00 0.00
12:56 pm 12:56 Sunny 85 29.2 63 17.4 49 49 SSW 10 17 29.99 1016 10 16 0.00 0.00
1:56 pm 13:56 Sunny 86 30.2 62 16.6 44 44 S 9 15 29.97 1015 10 16 0.00 0.00
2:56 pm 14:56 Sunny 87 30.4 61 16 42 42 S 9 15 29.95 1014 10 16 0.00 0.00
3:56 pm 15:56 Sunny 88 31 58 14.6 37 37 SSW 7 11 29.93 1014 10 16 0.00 0.00
4:56 pm 16:56 Sunny 88 30.9 60 15.7 40 40 S 7 11 29.92 1013 10 16 0.00 0.00
5:56 pm 17:56 Sunny 86 30.2 60 15.8 42 42 SW 7 11 29.90 1013 10 16 0.00 0.00
6:56 pm 18:56 Sunny 85 29.5 61 15.9 44 44 SSE 3 6 29.89 1012 10 16 0.00 0.00
7:56 pm 19:56 Sunny 84 28.7 62 16.6 48 48 SE 7 11 29.91 1013 10 16 0.00 0.00
8:56 pm 20:56 Clear 79 25.9 63 17 58 58 SE 6 9 29.92 1013 10 16 0.00 0.00
9:56 pm 21:56 Clear 78 25.6 63 17 59 59 SSE 6 9 29.93 1013 10 16 0.00 0.00
10:56 pm 22:56 Clear 73 22.7 64 17.8 74 74 Calm 29.93 1013 10 16 0.00 0.00
11:56 pm 23:56 Clear 67 19.2 63 17.3 89 89 Calm 29.93 1014 10 16 0.00 0.00

Powered by AerisWeather